Vista Casco antiguo Xert more information Vista Casco antiguo Xert


Thunder radar more information blitzortung!


Rain radar  rain snow radar


Visita nuestra red de sitios de meteo:

Template documentation
and downloads

El Tiempo en XertWeb Principal

Meteotemplate: El tiempo en XertPlantilla Meteotemplate

Dashboard34: El tiempo en XertPlantilla V34

GraphWeather: El tiempo en XertPlantilla GraphWeather



No se requiere una conciencia particular del clima.    No hay advertencias meteorologicas.

Select another period ( hide this area )

Unidades Período Custom range Directly to
Métrico impérial Tanto
Diario Semana Mensual Anual
use both date-selectors for a custom range
previous Dia
With this date

WeatherUnderground graphs for this period ( click here )


Diario Resumen Sabado 06 Marzo 2021
Tiempo Temp. ( °C ) Dew pt. ( °C ) Viento ( km/h ) desde Ráfaga ( km/h ) Presión ( hPa ) Humid.( % ) Rainrate ( cm )
Alto8,7 6,7 8,0 NO ( 137/295 ) 8,0 1022,1 95 -
Media6,5 5,3 2,9 calma #30/101 3,9 1020,8 92 -
Baja5,5 4,4 -   0,0 1020,3 87 -
Diario Tabular details for Sabado 06 Marzo 2021
Tiempo Temp. ( °C ) Dew pt. ( °C ) Viento ( km/h ) desde Ráfaga ( km/h ) Presión ( hPa ) Humid.( % ) Rainrate ( cm )
00:04 8,7 6,7 3,0 North 5,0 1020,7 87 -
00:09 8,4 6,4 5,0 NNW 5,0 1020,5 88 -
00:14 8,2 6,3 6,0 NO 6,0 1020,7 88 -
00:18 8,1 6,2 6,0 NO 6,0 1020,7 88 -
00:24 7,9 6,2 5,0 NNW 6,0 1020,7 89 -
00:29 7,9 6,2 5,0 NNW 6,0 1020,7 89 -
00:34 7,8 6,1 5,0 NO 5,0 1020,7 89 -
00:39 7,6 5,8 5,0 North 6,0 1020,5 89 -
00:44 7,5 5,8 5,0 NO 6,0 1020,5 89 -
00:49 7,4 5,7 5,0 NO 5,0 1020,4 89 -
00:53 7,1 5,5 5,0 North 5,0 1020,4 90 -
00:59 7,2 5,6 6,0 NO 6,0 1020,4 90 -
01:04 7,1 5,6 6,0 NO 8,0 1020,5 90 -
01:09 7,1 5,5 6,0 NO 8,0 1020,5 90 -
01:14 7,1 5,5 5,0 NNW 8,0 1020,7 90 -
01:19 6,8 5,3 3,0 North 5,0 1020,7 90 -
01:24 7,1 5,7 5,0 NNW 5,0 1020,7 91 -
01:29 7,0 5,4 2,0 NNW 5,0 1020,7 90 -
01:34 6,8 5,6 3,0 NNW 5,0 1020,7 91 -
01:39 6,8 5,3 2,0 NNW 3,0 1020,7 90 -
01:44 6,7 5,2 3,0 NNW 5,0 1020,7 91 -
01:49 6,6 5,6 6,0 NO 6,0 1020,7 91 -
01:54 6,4 5,1 5,0 NO 6,0 1020,7 91 -
01:59 6,4 5,0 5,0 NO 6,0 1020,7 91 -
02:04 6,3 4,9 3,0 NNW 6,0 1020,7 91 -
02:09 6,2 5,0 5,0 NO 5,0 1020,7 92 -
02:14 6,3 5,1 5,0 NNW 5,0 1020,7 92 -
02:19 6,2 4,9 5,0 NO 5,0 1020,4 92 -
02:23 6,2 4,9 5,0 NO 5,0 1020,4 92 -
02:28 6,1 4,9 2,0 NNW 5,0 1020,3 92 -
02:33 6,1 5,0 3,0 North 5,0 1020,4 92 -
02:38 6,1 4,9 5,0 NNW 5,0 1020,4 92 -
02:44 6,1 4,8 5,0 NO 5,0 1020,3 92 -
02:49 6,0 5,0 3,0 NO 5,0 1020,3 92 -
02:53 6,0 4,8 2,0 North 5,0 1020,3 92 -
02:58 6,0 4,9   calma 2,0 1020,3 93 -
03:04 6,1 5,0 2,0 North 2,0 1020,4 93 -
03:09 6,0 4,9   calma 2,0 1020,4 93 -
03:14 6,1 5,0   calma 2,0 1020,3 93 -
03:19 6,0 4,9   calma   1020,4 93 -
03:24 6,0 4,9   calma   1020,3 93 -
03:29 6,2 5,2   calma   1020,3 93 -
03:34 6,2 5,2   calma   1020,3 93 -
03:39 6,4 5,3 5,0 NNW 5,0 1020,3 93 -
03:44 6,3 5,3 2,0 NNW 5,0 1020,3 93 -
03:48 6,2 5,2   calma 3,0 1020,3 93 -
03:54 6,2 5,1   calma 2,0 1020,3 93 -
03:58 6,1 5,1   calma   1020,3 93 -
04:04 6,1 5,0   calma   1020,3 93 -
04:09 5,9 4,8   calma   1020,3 93 -
04:14 5,8 4,7   calma   1020,3 93 -
04:19 5,7 4,7   calma   1020,3 93 -
04:24 5,7 4,6   calma   1020,3 93 -
04:29 5,6 4,6   calma   1020,3 93 -
04:34 5,5 4,4 3,0 North 3,0 1020,3 93 -
04:39 5,5 4,4 3,0 North 5,0 1020,3 93 -
04:43 5,5 4,4 5,0 North 5,0 1020,3 93 -
04:48 5,6 4,7 5,0 NNW 5,0 1020,3 94 -
04:54 5,7 4,8 3,0 NNW 5,0 1020,3 94 -
04:59 5,7 4,8 2,0 NNW 3,0 1020,4 94 -
05:04 5,8 4,9 3,0 NNE 3,0 1020,4 94 -
05:09 6,1 5,2 5,0 NNW 5,0 1020,4 95 -
05:14 6,3 5,4 6,0 NO 6,0 1020,3 94 -
05:19 6,6 5,6 6,0 NO 6,0 1020,3 94 -
05:24 6,8 5,7 5,0 NNW 6,0 1020,7 93 -
05:29 7,0 5,9 3,0 NNW 5,0 1020,7 93 -
05:34 7,1 5,8 3,0 NNW 5,0 1020,5 92 -
05:38 7,0 5,6 2,0 NNW 3,0 1020,7 91 -
05:43 6,8 5,6   calma 3,0 1020,7 92 -
05:48 6,7 5,5 2,0 North 2,0 1020,7 92 -
05:53 6,7 5,5 3,0 North 3,0 1020,7 92 -
05:58 6,6 5,3 2,0 North 3,0 1020,7 92 -
06:04 6,4 5,2   calma 3,0 1020,7 92 -
06:09 6,6 5,5   calma 2,0 1021,0 93 -
06:14 6,4 5,2   calma   1021,0 92 -
06:19 6,6 5,5   calma   1021,0 93 -
06:24 6,5 5,3   calma   1021,0 92 -
06:29 6,2 4,9   calma   1021,0 92 -
06:34 6,2 5,2   calma   1021,1 93 -
06:39 6,1 5,0 5,0 NNW 5,0 1021,1 93 -
06:44 6,1 5,0 6,0 NO 6,0 1021,3 93 -
06:49 5,9 4,6 5,0 NNW 6,0 1021,3 92 -
06:54 5,8 4,6 5,0 NO 6,0 1021,4 92 -
06:59 5,7 4,6 5,0 NO 5,0 1021,4 93 -
07:04 5,8 4,7 5,0 NO 5,0 1021,4 93 -
07:08 5,9 4,8 8,0 NO 8,0 1021,7 93 -
07:13 6,2 5,1 6,0 NO 6,0 1021,7 93 -
07:19 6,4 5,2 6,0 NO 8,0 1021,7 92 -
07:24 6,6 5,4 3,0 North 6,0 1021,7 92 -
07:29 6,7 5,4   calma 6,0 1021,7 92 -
07:34 6,6 5,2   calma 3,0 1021,7 91 -
07:39 6,6 5,3 2,0 North 3,0 1021,7 92 -
07:44 6,7 5,4 3,0 North 3,0 1021,8 92 -
07:49 6,7 5,5 3,0 North 3,0 1021,7 92 -
07:53 6,7 5,5 3,0 North 3,0 1022,0 92 -
07:58 6,7 5,4   calma 3,0 1022,0 92 -
08:03 6,7 5,6   calma 2,0 1022,1 92 -
08:09 6,8 5,6 2,0 East 3,0 1022,1 92 -
08:13 6,9 5,7 3,0 SE 3,0 1022,1 92 -
08:18 7,1 5,8   calma 3,0 1022,0 92 -
08:20 7,1 5,8   calma 2,0 1022,0 92 -
Diario Resumen Sabado 06 Marzo 2021
Tiempo Temp. ( °C ) Dew pt. ( °C ) Viento ( km/h ) desde Ráfaga ( km/h ) Presión ( hPa ) Humid.( % ) Rainrate ( cm )
Alto8,7 6,7 8,0 NO ( 137/295 ) 8,0 1022,1 95 -
Media6,5 5,3 2,9 calma #30/101 3,9 1020,8 92 -
Baja5,5 4,4 -   0,0 1020,3 87 -
Diario Tabular details for Sabado 06 Marzo 2021
Tiempo Temp. ( °C ) Dew pt. ( °C ) Viento ( km/h ) desde Ráfaga ( km/h ) Presión ( hPa ) Humid.( % ) Rainrate ( cm )
00:04 8,7 6,7 3,0 North 5,0 1020,7 87 -
00:09 8,4 6,4 5,0 NNW 5,0 1020,5 88 -
00:14 8,2 6,3 6,0 NO 6,0 1020,7 88 -
00:18 8,1 6,2 6,0 NO 6,0 1020,7 88 -
00:24 7,9 6,2 5,0 NNW 6,0 1020,7 89 -
00:29 7,9 6,2 5,0 NNW 6,0 1020,7 89 -
00:34 7,8 6,1 5,0 NO 5,0 1020,7 89 -
00:39 7,6 5,8 5,0 North 6,0 1020,5 89 -
00:44 7,5 5,8 5,0 NO 6,0 1020,5 89 -
00:49 7,4 5,7 5,0 NO 5,0 1020,4 89 -
00:53 7,1 5,5 5,0 North 5,0 1020,4 90 -
00:59 7,2 5,6 6,0 NO 6,0 1020,4 90 -
01:04 7,1 5,6 6,0 NO 8,0 1020,5 90 -
01:09 7,1 5,5 6,0 NO 8,0 1020,5 90 -
01:14 7,1 5,5 5,0 NNW 8,0 1020,7 90 -
01:19 6,8 5,3 3,0 North 5,0 1020,7 90 -
01:24 7,1 5,7 5,0 NNW 5,0 1020,7 91 -
01:29 7,0 5,4 2,0 NNW 5,0 1020,7 90 -
01:34 6,8 5,6 3,0 NNW 5,0 1020,7 91 -
01:39 6,8 5,3 2,0 NNW 3,0 1020,7 90 -
01:44 6,7 5,2 3,0 NNW 5,0 1020,7 91 -
01:49 6,6 5,6 6,0 NO 6,0 1020,7 91 -
01:54 6,4 5,1 5,0 NO 6,0 1020,7 91 -
01:59 6,4 5,0 5,0 NO 6,0 1020,7 91 -
02:04 6,3 4,9 3,0 NNW 6,0 1020,7 91 -
02:09 6,2 5,0 5,0 NO 5,0 1020,7 92 -
02:14 6,3 5,1 5,0 NNW 5,0 1020,7 92 -
02:19 6,2 4,9 5,0 NO 5,0 1020,4 92 -
02:23 6,2 4,9 5,0 NO 5,0 1020,4 92 -
02:28 6,1 4,9 2,0 NNW 5,0 1020,3 92 -
02:33 6,1 5,0 3,0 North 5,0 1020,4 92 -
02:38 6,1 4,9 5,0 NNW 5,0 1020,4 92 -
02:44 6,1 4,8 5,0 NO 5,0 1020,3 92 -
02:49 6,0 5,0 3,0 NO 5,0 1020,3 92 -
02:53 6,0 4,8 2,0 North 5,0 1020,3 92 -
02:58 6,0 4,9   calma 2,0 1020,3 93 -
03:04 6,1 5,0 2,0 North 2,0 1020,4 93 -
03:09 6,0 4,9   calma 2,0 1020,4 93 -
03:14 6,1 5,0   calma 2,0 1020,3 93 -
03:19 6,0 4,9   calma   1020,4 93 -
03:24 6,0 4,9   calma   1020,3 93 -
03:29 6,2 5,2   calma   1020,3 93 -
03:34 6,2 5,2   calma   1020,3 93 -
03:39 6,4 5,3 5,0 NNW 5,0 1020,3 93 -
03:44 6,3 5,3 2,0 NNW 5,0 1020,3 93 -
03:48 6,2 5,2   calma 3,0 1020,3 93 -
03:54 6,2 5,1   calma 2,0 1020,3 93 -
03:58 6,1 5,1   calma   1020,3 93 -
04:04 6,1 5,0   calma   1020,3 93 -
04:09 5,9 4,8   calma   1020,3 93 -
04:14 5,8 4,7   calma   1020,3 93 -
04:19 5,7 4,7   calma   1020,3 93 -
04:24 5,7 4,6   calma   1020,3 93 -
04:29 5,6 4,6   calma   1020,3 93 -
04:34 5,5 4,4 3,0 North 3,0 1020,3 93 -
04:39 5,5 4,4 3,0 North 5,0 1020,3 93 -
04:43 5,5 4,4 5,0 North 5,0 1020,3 93 -
04:48 5,6 4,7 5,0 NNW 5,0 1020,3 94 -
04:54 5,7 4,8 3,0 NNW 5,0 1020,3 94 -
04:59 5,7 4,8 2,0 NNW 3,0 1020,4 94 -
05:04 5,8 4,9 3,0 NNE 3,0 1020,4 94 -
05:09 6,1 5,2 5,0 NNW 5,0 1020,4 95 -
05:14 6,3 5,4 6,0 NO 6,0 1020,3 94 -
05:19 6,6 5,6 6,0 NO 6,0 1020,3 94 -
05:24 6,8 5,7 5,0 NNW 6,0 1020,7 93 -
05:29 7,0 5,9 3,0 NNW 5,0 1020,7 93 -
05:34 7,1 5,8 3,0 NNW 5,0 1020,5 92 -
05:38 7,0 5,6 2,0 NNW 3,0 1020,7 91 -
05:43 6,8 5,6   calma 3,0 1020,7 92 -
05:48 6,7 5,5 2,0 North 2,0 1020,7 92 -
05:53 6,7 5,5 3,0 North 3,0 1020,7 92 -
05:58 6,6 5,3 2,0 North 3,0 1020,7 92 -
06:04 6,4 5,2   calma 3,0 1020,7 92 -
06:09 6,6 5,5   calma 2,0 1021,0 93 -
06:14 6,4 5,2   calma   1021,0 92 -
06:19 6,6 5,5   calma   1021,0 93 -
06:24 6,5 5,3   calma   1021,0 92 -
06:29 6,2 4,9   calma   1021,0 92 -
06:34 6,2 5,2   calma   1021,1 93 -
06:39 6,1 5,0 5,0 NNW 5,0 1021,1 93 -
06:44 6,1 5,0 6,0 NO 6,0 1021,3 93 -
06:49 5,9 4,6 5,0 NNW 6,0 1021,3 92 -
06:54 5,8 4,6 5,0 NO 6,0 1021,4 92 -
06:59 5,7 4,6 5,0 NO 5,0 1021,4 93 -
07:04 5,8 4,7 5,0 NO 5,0 1021,4 93 -
07:08 5,9 4,8 8,0 NO 8,0 1021,7 93 -
07:13 6,2 5,1 6,0 NO 6,0 1021,7 93 -
07:19 6,4 5,2 6,0 NO 8,0 1021,7 92 -
07:24 6,6 5,4 3,0 North 6,0 1021,7 92 -
07:29 6,7 5,4   calma 6,0 1021,7 92 -
07:34 6,6 5,2   calma 3,0 1021,7 91 -
07:39 6,6 5,3 2,0 North 3,0 1021,7 92 -
07:44 6,7 5,4 3,0 North 3,0 1021,8 92 -
07:49 6,7 5,5 3,0 North 3,0 1021,7 92 -
07:53 6,7 5,5 3,0 North 3,0 1022,0 92 -
07:58 6,7 5,4   calma 3,0 1022,0 92 -
08:03 6,7 5,6   calma 2,0 1022,1 92 -
08:09 6,8 5,6 2,0 East 3,0 1022,1 92 -
08:13 6,9 5,7 3,0 SE 3,0 1022,1 92 -
08:18 7,1 5,8   calma 3,0 1022,0 92 -
08:20 7,1 5,8   calma 2,0 1022,0 92 -

Download your copy of this data-set  here

Our weather-data as stored at Weather Underground. Guión original por Jim McMurry. Adaptado para la plantilla por Leuven-Template.eu

Te das cuenta de información de tiempo también en:

UK Metoffice

WeatherCloud

Weather Underground

Xert, Pla de la Font

AWEKAS

WeatherlinkIP

Citizen Weather Observer Program (CWOP)

HAMweather, WeatherForYou, PWS Weather

Equipo usamos:

Weather-station
Davis Vantage VUE

Weather-program
Davis Weatherlink.Com

Weather-server
My Computer

Proveedor
Hostinger

Davis Vantage VUE

Davis Weatherlink.Com

My Computer

Hostinger